This is the latest recevied weather packets stored in our database for station/object KH6HHG. If no packets are shown the sender has not sent any weather packets the latest 10 day(s).
| Time | Temp. | Humidity | Pressure | Rain* | Wind** | Luminosity | Snow |
|---|---|---|---|---|---|---|---|
| 1777149547 | 23.89° C | 75% | 1013.8 hPa | 0 mm | - | - | - |
| 1777149247 | 24.44° C | 72% | 1013.8 hPa | 0 mm | - | - | - |
| 1777148947 | 25° C | 71% | 1013.7 hPa | 0 mm | - | - | - |
| 1777148647 | 25° C | 71% | 1013.8 hPa | 0 mm | - | - | - |
| 1777148347 | 25° C | 71% | 1013.8 hPa | 0 mm | - | - | - |
| 1777148047 | 25° C | 70% | 1013.7 hPa | 0 mm | - | - | - |
| 1777147747 | 24.44° C | 72% | 1013.7 hPa | 0 mm | - | - | - |
| 1777147447 | 24.44° C | 70% | 1013.7 hPa | 0 mm | - | - | - |
| 1777147147 | 24.44° C | 71% | 1013.7 hPa | 0 mm | - | - | - |
| 1777146847 | 24.44° C | 71% | 1013.7 hPa | 0 mm | - | - | - |
| 1777146547 | 23.89° C | 72% | 1013.7 hPa | 0 mm | - | - | - |
| 1777146247 | 23.89° C | 72% | 1013.8 hPa | 0 mm | - | - | - |
| 1777145947 | 23.89° C | 73% | 1013.9 hPa | 0 mm | - | - | - |
| 1777145647 | 23.89° C | 73% | 1013.8 hPa | 0 mm | - | - | - |
| 1777145347 | 23.89° C | 73% | 1013.8 hPa | 0 mm | - | - | - |
| 1777145047 | 23.89° C | 74% | 1013.8 hPa | 0 mm | - | - | - |
| 1777144747 | 23.33° C | 75% | 1013.8 hPa | 0 mm | - | - | - |
| 1777144447 | 23.33° C | 75% | 1013.8 hPa | 0 mm | - | - | - |
| 1777144147 | 23.33° C | 75% | 1013.7 hPa | 0 mm | - | - | - |
| 1777143847 | 23.33° C | 74% | 1013.6 hPa | 0 mm | - | - | - |
| 1777143547 | 23.33° C | 75% | 1013.6 hPa | 0 mm | - | - | - |
| 1777143247 | 23.33° C | 76% | 1013.6 hPa | 0 mm | - | - | - |
| 1777142947 | 23.33° C | 76% | 1013.6 hPa | 0 mm | - | - | - |
| 1777142647 | 23.33° C | 74% | 1013.5 hPa | 0 mm | - | - | - |
| 1777142349 | 22.78° C | 74% | 1013.5 hPa | 0 mm | - | - | - |
* Rain latest hour (hover to see other rain measurements)
** Current wind speed in m/s (hover to see current wind gust speed)